Location: *
(35.8942°N, 23.3025°E)
Time: 23:33:49
(UTC+00:00)

CZ-2D R/B - Pass Details

Date: 21 September 2021
Orbit: 552 x 638 km, 97.9° (Epoch: 22 October)

Event Time Altitude Azimuth Distance (km) Brightness Sun altitude
Rises 02:27:34 0° 3° (N) 2,923 7.3 -22.0°
Reaches altitude 10° 02:29:53 10° 355° (N) 2,001 6.3 -21.6°
Enters shadow 02:33:05 34° 314° (NW) 1,020 4.4 -20.9°
